Flag for Canada Weather past 2 weeks in Rothesay, New Brunswick, Canada

Now
75 °F

Scattered clouds.


Feels Like: 77 °F
Forecast: 57 / 75 °F
Wind: 13 mph from Southwest

Location: Saint John

Current Time: Aug 30, 2015 at 3:14:13 PM

Latest Report: Aug 30, 2015 at 2:00 PM


Visibility: 15 mi

Pressure: 29.99 "Hg

Humidity: 61%

Dew point: 61 °F

Location of RothesayLocation

Historic Weather in Rothesay — Graph

°F

Rothesay temperature yesterday

Maximum temperature yesterday: 73 °F (at 12:00 PM)
Minimum temperature yesterday: 46 °F (at 6:00 AM)
Average temperature yesterday: 60 °F

Past Weeks' High & Low Weather Summary

 TemperatureHumidityPressure
High81 °F (Aug 16, 1:00 PM)100% (Aug 15, 9:00 PM)30.23 "Hg (Aug 15, 9:00 PM)
Low46 °F (Aug 29, 6:00 AM)44% (Aug 28, 4:00 PM)29.84 "Hg (Aug 27, 4:00 PM)
Average67 °F89%30.05 "Hg
* Reported Aug 15 1:00 PM — Aug 30 1:00 PM, Rothesay, Weather by CustomWeather, © 2015

Note: Actual official high and low records may vary slightly from our data, if they occured in-between our weather recording intervals... More about our weather records

Advertising

Rothesay weather history for previous 24 hours

 ConditionsComfort  
Time TempWeatherWind HumidityBarometerVisibility
1:00 PM
Sun, Aug 30
75 °FScattered clouds.10 mph61%30.00 "Hg15 mi
12:00 PM73 °FScattered clouds.8 mph61%30.02 "Hg15 mi
11:00 AM72 °FScattered clouds.6 mph65%30.03 "Hg15 mi
10:00 AM68 °FBroken clouds.2 mph73%30.02 "Hg15 mi
9:00 AM63 °FPartly sunny.3 mph88%30.02 "Hg15 mi
8:00 AM59 °FCloudy.3 mph94%30.02 "Hg15 mi
7:00 AM57 °FOvercast.6 mph94%30.01 "Hg15 mi
6:00 AM57 °FMostly cloudy.3 mph94%30.02 "Hg15 mi
5:00 AM57 °FMostly cloudy.2 mph94%30.02 "Hg15 mi
4:00 AM57 °FPartly cloudy.3 mph94%30.03 "Hg15 mi
3:00 AM57 °FPassing clouds.2 mph94%30.04 "Hg15 mi
2:00 AM55 °FPassing clouds.3 mph100%30.05 "Hg15 mi
1:00 AM57 °FPassing clouds.2 mph94%30.05 "Hg15 mi
12:00 AM55 °FPassing clouds.3 mph100%30.07 "Hg15 mi
11:00 PM
Sat, Aug 29
57 °FPassing clouds.2 mph94%30.07 "Hg15 mi
10:00 PM59 °FPassing clouds.6 mph94%30.07 "Hg15 mi
9:00 PM61 °FOvercast.3 mph88%30.07 "Hg15 mi
8:00 PM61 °FHigh level clouds.No wind88%30.07 "Hg15 mi
7:00 PM64 °FHigh level clouds.8 mph73%30.06 "Hg15 mi
6:00 PM64 °FHigh level clouds.15 mph73%30.07 "Hg15 mi
5:00 PM70 °FHigh level clouds.15 mph60%30.08 "Hg15 mi
4:00 PM72 °FHigh level clouds.15 mph61%30.08 "Hg15 mi
3:00 PM73 °FHigh level clouds.13 mph61%30.09 "Hg15 mi
Weather by CustomWeather, © 2015

See weather overviewHow to use our weather pages